TimeCST,TemperatureF,Dew PointF,Humidity,Sea Level PressureIn,VisibilityMPH,Wind Direction,Wind SpeedMPH,Gust SpeedMPH,PrecipitationIn,Events,Conditions,WindDirDegrees,DateUTC
12:52 AM,16.0,7.0,68,30.35,10.0,NW,15.0,-,N/A,,Clear,310,2013-12-06 06:52:00
1:52 AM,15.1,6.1,68,30.38,10.0,NW,12.7,-,N/A,,Clear,310,2013-12-06 07:52:00
2:52 AM,12.9,5.0,71,30.38,10.0,NW,11.5,-,N/A,,Clear,320,2013-12-06 08:52:00
3:52 AM,12.0,3.9,70,30.39,10.0,WNW,9.2,-,N/A,,Clear,300,2013-12-06 09:52:00
4:52 AM,12.0,3.0,67,30.41,10.0,NW,12.7,-,N/A,,Clear,320,2013-12-06 10:52:00
5:52 AM,12.0,3.0,67,30.41,10.0,WNW,11.5,-,N/A,,Mostly Cloudy,300,2013-12-06 11:52:00
6:52 AM,10.9,1.9,67,30.43,10.0,WNW,13.8,-,N/A,,Overcast,300,2013-12-06 12:52:00
7:52 AM,10.9,3.0,70,30.45,10.0,WNW,12.7,-,N/A,,Overcast,300,2013-12-06 13:52:00
8:52 AM,12.0,1.9,64,30.48,10.0,WNW,9.2,-,N/A,,Overcast,300,2013-12-06 14:52:00
9:52 AM,12.0,1.9,64,30.49,10.0,WNW,10.4,-,N/A,,Clear,300,2013-12-06 15:52:00
10:52 AM,12.9,1.9,62,30.49,10.0,NW,9.2,-,N/A,,Clear,310,2013-12-06 16:52:00
11:52 AM,14.0,1.0,56,30.45,10.0,NNW,10.4,-,N/A,,Clear,340,2013-12-06 17:52:00
12:52 PM,15.1,1.9,56,30.47,10.0,NNW,6.9,-,N/A,,Clear,330,2013-12-06 18:52:00
1:52 PM,18.0,1.9,50,30.45,10.0,NNW,10.4,-,N/A,,Clear,340,2013-12-06 19:52:00
2:52 PM,19.0,1.9,47,30.46,10.0,NW,11.5,-,N/A,,Mostly Cloudy,310,2013-12-06 20:52:00
3:52 PM,17.1,3.0,54,30.48,10.0,NNW,11.5,-,N/A,,Overcast,330,2013-12-06 21:52:00
4:52 PM,15.1,3.0,59,30.49,10.0,NW,11.5,-,N/A,,Clear,310,2013-12-06 22:52:00
5:52 PM,14.0,3.0,62,30.51,10.0,NW,10.4,-,N/A,,Clear,310,2013-12-06 23:52:00
6:52 PM,12.9,3.0,65,30.55,10.0,WNW,12.7,-,N/A,,Clear,300,2013-12-07 00:52:00
7:52 PM,12.9,3.0,65,30.57,10.0,NW,10.4,-,N/A,,Clear,310,2013-12-07 01:52:00
8:52 PM,12.0,3.0,67,30.59,10.0,NW,10.4,-,N/A,,Clear,310,2013-12-07 02:52:00
9:52 PM,12.0,1.9,64,30.61,10.0,NW,10.4,-,N/A,,Overcast,320,2013-12-07 03:52:00
10:52 PM,10.0,1.9,70,30.63,10.0,NW,9.2,-,N/A,,Clear,310,2013-12-07 04:52:00
11:52 PM,10.0,1.9,70,30.65,10.0,NW,8.1,-,N/A,,Clear,310,2013-12-07 05:52:00